| time (UTC) | temp F | wind direction | speed MPH | gust MPH | rain 1hr in | rain 24hr in | rain mn in | humidity % | barometer mb |
| 20260901013006 | 94 | 150 | 4.0 | 8.0 | 0.00 | 0.00 | 0.00 | 37 | 1014.4 |
| 20260901012506 | 94 | 168 | 3.0 | 10.0 | 0.00 | 0.00 | 0.00 | 36 | 1014.4 |
| 20260901012006 | 94 | 152 | 6.0 | 12.0 | 0.00 | 0.00 | 0.00 | 37 | 1014.3 |
| 20260901011506 | 95 | 172 | 3.0 | 10.0 | 0.00 | 0.00 | 0.00 | 36 | 1014.3 |
| 20260901011006 | 95 | 164 | 5.0 | 9.0 | 0.00 | 0.00 | 0.00 | 36 | 1014.4 |
| 20260901010506 | 95 | 156 | 6.0 | 12.0 | 0.00 | 0.00 | 0.00 | 36 | 1014.3 |
| 20260901005506 | 95 | 155 | 1.0 | 8.0 | 0.00 | 0.00 | 0.00 | 35 | 1014.3 |
| 20260901005006 | 95 | 161 | 3.0 | 8.0 | 0.00 | 0.00 | 0.00 | 35 | 1014.3 |
| 20260901004506 | 96 | 164 | 2.0 | 6.0 | 0.00 | 0.00 | 0.00 | 35 | 1014.2 |
| 20260901004005 | 96 | 51 | 3.0 | 10.0 | 0.00 | 0.00 | 0.00 | 35 | 1014.1 |
| 20260901003506 | 96 | 51 | 4.0 | 8.0 | 0.00 | 0.00 | 0.00 | 34 | 1014.2 |
| 20260901003006 | 96 | 51 | 2.0 | 7.0 | 0.00 | 0.00 | 0.00 | 34 | 1014.2 |
| 20260901002505 | 96 | 51 | 5.0 | 8.0 | 0.00 | 0.00 | 0.00 | 34 | 1014.1 |
| 20260901002006 | 96 | 166 | 4.0 | 12.0 | 0.00 | 0.00 | 0.00 | 33 | 1014.2 |
| 20260901001506 | 96 | 171 | 3.0 | 9.0 | 0.00 | 0.00 | 0.00 | 33 | 1014.1 |
| 20260901001005 | 97 | 140 | 3.0 | 10.0 | 0.00 | 0.00 | 0.00 | 33 | 1014.1 |
| 20260901000506 | 97 | 140 | 3.0 | 9.0 | 0.00 | 0.00 | 0.00 | 33 | 1014.2 |
| 20260901000006 | 97 | 142 | 6.0 | 12.0 | 0.00 | 0.00 | 0.00 | 32 | 1014.1 |
| 20260831235506 | 97 | 156 | 6.0 | 12.0 | 0.00 | 0.00 | 0.00 | 32 | 1014.1 |
| 20260831235005 | 97 | 163 | 5.0 | 9.0 | 0.00 | 0.00 | 0.00 | 33 | 1014.2 |
| 20260831234006 | 98 | 166 | 6.0 | 10.0 | 0.00 | 0.00 | 0.00 | 32 | 1014.3 |
| 20260831233505 | 98 | 142 | 3.0 | 9.0 | 0.00 | 0.00 | 0.00 | 32 | 1014.2 |
| 20260831233005 | 97 | 125 | 4.0 | 9.0 | 0.00 | 0.00 | 0.00 | 33 | 1014.2 |
| 20260831232506 | 98 | 101 | 3.0 | 8.0 | 0.00 | 0.00 | 0.00 | 32 | 1014.2 |
| 20260831232006 | 98 | 186 | 3.0 | 8.0 | 0.00 | 0.00 | 0.00 | 32 | 1014.1 |
| 20260831231505 | 98 | 135 | 3.0 | 8.0 | 0.00 | 0.00 | 0.00 | 32 | 1014.2 |
| 20260831231005 | 98 | 128 | 5.0 | 13.0 | 0.00 | 0.00 | 0.00 | 32 | 1014.0 |
| 20260831230506 | 98 | 165 | 4.0 | 10.0 | 0.00 | 0.00 | 0.00 | 32 | 1014.2 |
| 20260831230005 | 99 | 165 | 5.0 | 13.0 | 0.00 | 0.00 | 0.00 | 32 | 1014.3 |
| 20260831225505 | 99 | 143 | 5.0 | 12.0 | 0.00 | 0.00 | 0.00 | 32 | 1014.3 |
| 20260831225006 | 99 | 120 | 6.0 | 13.0 | 0.00 | 0.00 | 0.00 | 32 | 1014.2 |
| 20260831224506 | 99 | 180 | 3.0 | 8.0 | 0.00 | 0.00 | 0.00 | 32 | 1014.3 |
| 20260831224005 | 99 | 186 | 3.0 | 9.0 | 0.00 | 0.00 | 0.00 | 31 | 1014.3 |
| 20260831222505 | 99 | 185 | 6.0 | 13.0 | 0.00 | 0.00 | 0.00 | 32 | 1014.5 |
| 20260831222005 | 99 | 175 | 6.0 | 13.0 | 0.00 | 0.00 | 0.00 | 32 | 1014.4 |
| 20260831221505 | 99 | 191 | 6.0 | 10.0 | 0.00 | 0.00 | 0.00 | 32 | 1014.5 |
| 20260831221005 | 98 | 123 | 1.0 | 5.0 | 0.00 | 0.00 | 0.00 | 33 | 1014.5 |
| 20260831220505 | 98 | 185 | 3.0 | 10.0 | 0.00 | 0.00 | 0.00 | 32 | 1014.6 |
| 20260831220005 | 99 | 149 | 7.0 | 13.0 | 0.00 | 0.00 | 0.00 | 31 | 1014.6 |
| 20260831215505 | 100 | 163 | 7.0 | 13.0 | 0.00 | 0.00 | 0.00 | 31 | 1014.6 |
| 20260831215005 | 100 | 114 | 9.0 | 14.0 | 0.00 | 0.00 | 0.00 | 32 | 1014.8 |
| 20260831214505 | 100 | 138 | 6.0 | 12.0 | 0.00 | 0.00 | 0.00 | 31 | 1014.8 |
| 20260831214005 | 101 | 169 | 7.0 | 13.0 | 0.00 | 0.00 | 0.00 | 30 | 1014.8 |
| 20260831213505 | 101 | 105 | 5.0 | 10.0 | 0.00 | 0.00 | 0.00 | 31 | 1014.9 |
| 20260831213005 | 101 | 174 | 9.0 | 13.0 | 0.00 | 0.00 | 0.00 | 30 | 1014.9 |
| 20260831212005 | 101 | 187 | 6.0 | 12.0 | 0.00 | 0.00 | 0.00 | 31 | 1015.1 |
| 20260831211505 | 100 | 146 | 7.0 | 13.0 | 0.00 | 0.00 | 0.00 | 32 | 1015.0 |
| 20260831211005 | 101 | 148 | 9.0 | 14.0 | 0.00 | 0.00 | 0.00 | 32 | 1015.2 |
| 20260831210505 | 100 | 170 | 6.0 | 13.0 | 0.00 | 0.00 | 0.00 | 32 | 1015.3 |
| 20260831210005 | 100 | 133 | 5.0 | 8.0 | 0.00 | 0.00 | 0.00 | 32 | 1015.2 |
| 20260831205505 | 100 | 167 | 5.0 | 9.0 | 0.00 | 0.00 | 0.00 | 32 | 1015.4 |
| 20260831205005 | 100 | 137 | 6.0 | 13.0 | 0.00 | 0.00 | 0.00 | 31 | 1015.5 |
| 20260831204506 | 100 | 128 | 7.0 | 14.0 | 0.00 | 0.00 | 0.00 | 33 | 1015.5 |
| 20260831204006 | 100 | 169 | 9.0 | 17.0 | 0.00 | 0.00 | 0.00 | 33 | 1015.5 |
| 20260831203505 | 100 | 119 | 9.0 | 15.0 | 0.00 | 0.00 | 0.00 | 32 | 1015.7 |
| 20260831202505 | 98 | 163 | 6.0 | 13.0 | 0.00 | 0.00 | 0.00 | 35 | 1015.8 |
| 20260831202005 | 99 | 106 | 6.0 | 13.0 | 0.00 | 0.00 | 0.00 | 34 | 1015.7 |
| 20260831201505 | 100 | 127 | 6.0 | 12.0 | 0.00 | 0.00 | 0.00 | 34 | 1015.8 |
| 20260831201005 | 100 | 188 | 10.0 | 17.0 | 0.00 | 0.00 | 0.00 | 34 | 1015.9 |
| 20260831200505 | 101 | 127 | 7.0 | 14.0 | 0.00 | 0.00 | 0.00 | 31 | 1015.9 |
| 20260831200005 | 101 | 107 | 8.0 | 16.0 | 0.00 | 0.00 | 0.00 | 32 | 1016.1 |
| 20260831195505 | 101 | 144 | 7.0 | 13.0 | 0.00 | 0.00 | 0.00 | 32 | 1016.1 |
| 20260831195005 | 100 | 152 | 7.0 | 13.0 | 0.00 | 0.00 | 0.00 | 33 | 1016.2 |
| 20260831194505 | 98 | 166 | 5.0 | 17.0 | 0.00 | 0.00 | 0.00 | 34 | 1016.3 |
| 20260831194005 | 99 | 166 | 2.0 | 8.0 | 0.00 | 0.00 | 0.00 | 34 | 1016.3 |
| 20260831193505 | 99 | 158 | 3.0 | 7.0 | 0.00 | 0.00 | 0.00 | 33 | 1016.5 |
| 20260831193005 | 101 | 156 | 6.0 | 13.0 | 0.00 | 0.00 | 0.00 | 31 | 1016.4 |
| 20260831192505 | 100 | 179 | 10.0 | 14.0 | 0.00 | 0.00 | 0.00 | 31 | 1016.4 |
| 20260831192005 | 98 | 136 | 4.0 | 10.0 | 0.00 | 0.00 | 0.00 | 35 | 1016.5 |
| 20260831191505 | 98 | 137 | 9.0 | 17.0 | 0.00 | 0.00 | 0.00 | 33 | 1016.6 |
| 20260831191005 | 100 | 167 | 10.0 | 16.0 | 0.00 | 0.00 | 0.00 | 32 | 1016.5 |
| 20260831190505 | 99 | 174 | 7.0 | 13.0 | 0.00 | 0.00 | 0.00 | 33 | 1016.6 |
| 20260831190005 | 102 | 161 | 4.0 | 12.0 | 0.00 | 0.00 | 0.00 | 32 | 1016.5 |
| 20260831185504 | 101 | 184 | 6.0 | 13.0 | 0.00 | 0.00 | 0.00 | 33 | 1016.6 |
| 20260831185004 | 100 | 195 | 4.0 | 12.0 | 0.00 | 0.00 | 0.00 | 33 | 1016.6 |
| 20260831184505 | 100 | 176 | 7.0 | 13.0 | 0.00 | 0.00 | 0.00 | 34 | 1016.8 |
| 20260831184005 | 99 | 147 | 5.0 | 13.0 | 0.00 | 0.00 | 0.00 | 37 | 1016.8 |
| 20260831183004 | 98 | 174 | 10.0 | 17.0 | 0.00 | 0.00 | 0.00 | 36 | 1017.0 |
| 20260831182505 | 99 | 158 | 11.0 | 16.0 | 0.00 | 0.00 | 0.00 | 34 | 1017.0 |
| 20260831182005 | 99 | 166 | 4.0 | 17.0 | 0.00 | 0.00 | 0.00 | 34 | 1017.1 |
| 20260831181505 | 99 | 169 | 7.0 | 13.0 | 0.00 | 0.00 | 0.00 | 35 | 1017.2 |
| 20260831181005 | 99 | 168 | 11.0 | 18.0 | 0.00 | 0.00 | 0.00 | 35 | 1017.4 |
| 20260831175505 | 98 | 169 | 5.0 | 12.0 | 0.00 | 0.00 | 0.00 | 38 | 1017.5 |
| 20260831175005 | 97 | 149 | 4.0 | 9.0 | 0.00 | 0.00 | 0.00 | 41 | 1017.6 |
| 20260831174505 | 98 | 191 | 5.0 | 10.0 | 0.00 | 0.00 | 0.00 | 38 | 1017.7 |
| 20260831174005 | 98 | 197 | 3.0 | 9.0 | 0.00 | 0.00 | 0.00 | 39 | 1017.8 |
| 20260831173004 | 98 | 185 | 5.0 | 9.0 | 0.00 | 0.00 | 0.00 | 40 | 1017.9 |
| 20260831172504 | 97 | 243 | 5.0 | 13.0 | 0.00 | 0.00 | 0.00 | 40 | 1018.0 |
| 20260831172005 | 97 | 268 | 2.0 | 7.0 | 0.00 | 0.00 | 0.00 | 41 | 1018.1 |
| 20260831171505 | 97 | 255 | 4.0 | 10.0 | 0.00 | 0.00 | 0.00 | 42 | 1018.1 |
| 20260831171006 | 97 | 261 | 5.0 | 10.0 | 0.00 | 0.00 | 0.00 | 42 | 1018.0 |
| 20260831170505 | 96 | 190 | 3.0 | 12.0 | 0.00 | 0.00 | 0.00 | 42 | 1018.1 |
| 20260831165505 | 96 | 224 | 5.0 | 13.0 | 0.00 | 0.00 | 0.00 | 43 | 1018.2 |
| 20260831165005 | 96 | 174 | 5.0 | 13.0 | 0.00 | 0.00 | 0.00 | 43 | 1018.1 |
| 20260831164504 | 96 | 156 | 5.0 | 10.0 | 0.00 | 0.00 | 0.00 | 43 | 1018.1 |
| 20260831164004 | 95 | 236 | 3.0 | 9.0 | 0.00 | 0.00 | 0.00 | 43 | 1018.1 |
| 20260831163004 | 95 | 256 | 5.0 | 10.0 | 0.00 | 0.00 | 0.00 | 42 | 1018.2 |
| 20260831162505 | 95 | 243 | 5.0 | 12.0 | 0.00 | 0.00 | 0.00 | 42 | 1018.3 |
| 20260831162005 | 95 | 233 | 5.0 | 12.0 | 0.00 | 0.00 | 0.00 | 42 | 1018.3 |
| 20260831161505 | 94 | 270 | 5.0 | 12.0 | 0.00 | 0.00 | 0.00 | 43 | 1018.3 |
| 20260831160504 | 94 | 187 | 4.0 | 10.0 | 0.00 | 0.00 | 0.00 | 44 | 1018.4 |
| 20260831155504 | 93 | 250 | 5.0 | 13.0 | 0.00 | 0.00 | 0.00 | 44 | 1018.3 |
| 20260831155004 | 93 | 240 | 5.0 | 13.0 | 0.00 | 0.00 | 0.00 | 43 | 1018.2 |
| 20260831152504 | 92 | 240 | 3.0 | 10.0 | 0.00 | 0.00 | 0.00 | 45 | 1018.1 |
| 20260831152004 | 92 | 186 | 5.0 | 14.0 | 0.00 | 0.00 | 0.00 | 43 | 1018.1 |
| 20260831151005 | 91 | 209 | 3.0 | 8.0 | 0.00 | 0.00 | 0.00 | 45 | 1018.0 |
| 20260831150505 | 91 | 232 | 5.0 | 8.0 | 0.00 | 0.00 | 0.00 | 46 | 1018.0 |
| 20260831150005 | 91 | 206 | 3.0 | 8.0 | 0.00 | 0.00 | 0.00 | 47 | 1018.0 |
| 20260831145005 | 90 | 218 | 3.0 | 10.0 | 0.00 | 0.00 | 0.00 | 50 | 1017.9 |
| 20260831144504 | 90 | 224 | 3.0 | 12.0 | 0.00 | 0.00 | 0.00 | 50 | 1017.8 |
| 20260831144004 | 89 | 260 | 4.0 | 9.0 | 0.00 | 0.00 | 0.00 | 51 | 1017.9 |
| 20260831143504 | 89 | 188 | 4.0 | 10.0 | 0.00 | 0.00 | 0.00 | 51 | 1017.9 |
| 20260831143004 | 88 | 259 | 3.0 | 8.0 | 0.00 | 0.00 | 0.00 | 54 | 1017.9 |
| 20260831142504 | 88 | 211 | 3.0 | 9.0 | 0.00 | 0.00 | 0.00 | 54 | 1017.8 |
| 20260831142004 | 88 | 233 | 2.0 | 9.0 | 0.00 | 0.00 | 0.00 | 55 | 1017.9 |
| 20260831141504 | 87 | 244 | 3.0 | 7.0 | 0.00 | 0.00 | 0.00 | 55 | 1017.9 |
| 20260831141005 | 87 | 196 | 3.0 | 7.0 | 0.00 | 0.00 | 0.00 | 57 | 1017.9 |
| 20260831140505 | 87 | 246 | 5.0 | 10.0 | 0.00 | 0.00 | 0.00 | 57 | 1018.0 |
| 20260831135504 | 86 | 236 | 4.0 | 7.0 | 0.00 | 0.00 | 0.00 | 58 | 1017.8 |
| 20260831135005 | 86 | 189 | 2.0 | 7.0 | 0.00 | 0.00 | 0.00 | 59 | 1017.7 |
| 20260831134004 | 85 | 171 | 3.0 | 9.0 | 0.00 | 0.00 | 0.00 | 62 | 1017.6 |
| 20260831133004 | 84 | 180 | 2.0 | 8.0 | 0.00 | 0.00 | 0.00 | 63 | 1017.6 |
| 20260831132004 | 83 | 154 | 6.0 | 10.0 | 0.00 | 0.00 | 0.00 | 65 | 1017.4 |
| 20260831131505 | 83 | 182 | 5.0 | 12.0 | 0.00 | 0.00 | 0.00 | 65 | 1017.3 |
| 20260831131004 | 83 | 162 | 4.0 | 7.0 | 0.00 | 0.00 | 0.00 | 66 | 1017.2 |
| 20260831130505 | 82 | 183 | 4.0 | 8.0 | 0.00 | 0.00 | 0.00 | 67 | 1017.2 |
| 20260831130004 | 82 | 172 | 3.0 | 6.0 | 0.00 | 0.00 | 0.00 | 66 | 1017.1 |
| 20260831125005 | 82 | 171 | 3.0 | 6.0 | 0.00 | 0.00 | 0.00 | 66 | 1017.0 |
| 20260831124504 | 82 | 178 | 2.0 | 7.0 | 0.00 | 0.00 | 0.00 | 65 | 1016.9 |
| 20260831124004 | 82 | 176 | 3.0 | 8.0 | 0.00 | 0.00 | 0.00 | 66 | 1016.8 |
| 20260831123504 | 81 | 186 | 5.0 | 8.0 | 0.00 | 0.00 | 0.00 | 66 | 1016.7 |
| 20260831123004 | 81 | 174 | 2.0 | 3.0 | 0.00 | 0.00 | 0.00 | 66 | 1016.6 |
| 20260831122504 | 82 | 187 | 2.0 | 5.0 | 0.00 | 0.00 | 0.00 | 66 | 1016.6 |
| 20260831122004 | 82 | 189 | 2.0 | 5.0 | 0.00 | 0.00 | 0.00 | 66 | 1016.5 |
| 20260831121505 | 82 | 223 | 2.0 | 7.0 | 0.00 | 0.00 | 0.00 | 66 | 1016.4 |
| 20260831121004 | 82 | 205 | 1.0 | 7.0 | 0.00 | 0.00 | 0.00 | 66 | 1016.3 |
| 20260831120504 | 82 | 200 | 3.0 | 8.0 | 0.00 | 0.00 | 0.00 | 66 | 1016.3 |
| 20260831120004 | 82 | 207 | 3.0 | 7.0 | 0.00 | 0.00 | 0.00 | 66 | 1016.3 |
| 20260831115504 | 82 | 201 | 3.0 | 8.0 | 0.00 | 0.00 | 0.00 | 67 | 1016.2 |
| 20260831115004 | 81 | 194 | 2.0 | 7.0 | 0.00 | 0.00 | 0.00 | 68 | 1016.1 |
| 20260831114504 | 81 | 200 | 0.0 | 2.0 | 0.00 | 0.00 | 0.00 | 68 | 1016.1 |
| 20260831114003 | 82 | 197 | 1.0 | 3.0 | 0.00 | 0.00 | 0.00 | 67 | 1016.0 |
| 20260831113504 | 82 | 182 | 1.0 | 3.0 | 0.00 | 0.00 | 0.00 | 67 | 1016.0 |
| 20260831113004 | 82 | 200 | 1.0 | 3.0 | 0.00 | 0.00 | 0.00 | 67 | 1016.0 |
| 20260831112503 | 82 | 200 | 1.0 | 3.0 | 0.00 | 0.00 | 0.00 | 66 | 1015.9 |
| 20260831111004 | 82 | 239 | 2.0 | 8.0 | 0.00 | 0.00 | 0.00 | 66 | 1015.8 |
| 20260831110004 | 82 | 186 | 1.0 | 5.0 | 0.00 | 0.00 | 0.00 | 66 | 1015.8 |
| 20260831105504 | 83 | 228 | 2.0 | 6.0 | 0.00 | 0.00 | 0.00 | 66 | 1015.8 |
| 20260831104504 | 83 | 200 | 3.0 | 8.0 | 0.00 | 0.00 | 0.00 | 66 | 1015.8 |
| 20260831104004 | 83 | 218 | 3.0 | 7.0 | 0.00 | 0.00 | 0.00 | 65 | 1015.7 |
| 20260831103003 | 83 | 190 | 4.0 | 13.0 | 0.00 | 0.00 | 0.00 | 65 | 1015.8 |
| 20260831102503 | 83 | 207 | 3.0 | 8.0 | 0.00 | 0.00 | 0.00 | 65 | 1015.8 |
| 20260831102004 | 83 | 214 | 2.0 | 9.0 | 0.00 | 0.00 | 0.00 | 64 | 1015.8 |
| 20260831101504 | 83 | 216 | 4.0 | 10.0 | 0.00 | 0.00 | 0.00 | 64 | 1015.7 |
| 20260831101004 | 83 | 227 | 2.0 | 9.0 | 0.00 | 0.00 | 0.00 | 64 | 1015.7 |
| 20260831100503 | 83 | 251 | 2.0 | 6.0 | 0.00 | 0.00 | 0.00 | 64 | 1015.7 |
| 20260831100004 | 83 | 196 | 2.0 | 5.0 | 0.00 | 0.00 | 0.00 | 63 | 1015.7 |
| 20260831095503 | 83 | 224 | 3.0 | 7.0 | 0.00 | 0.00 | 0.00 | 62 | 1015.7 |
| 20260831095004 | 84 | 213 | 2.0 | 8.0 | 0.00 | 0.00 | 0.00 | 62 | 1015.7 |
| 20260831094504 | 84 | 218 | 3.0 | 8.0 | 0.00 | 0.00 | 0.00 | 62 | 1015.6 |
| 20260831094004 | 84 | 206 | 3.0 | 12.0 | 0.00 | 0.00 | 0.00 | 61 | 1015.7 |
| 20260831093504 | 84 | 198 | 2.0 | 10.0 | 0.00 | 0.00 | 0.00 | 61 | 1015.7 |
| 20260831093003 | 84 | 208 | 2.0 | 8.0 | 0.00 | 0.00 | 0.00 | 61 | 1015.6 |
| 20260831092003 | 84 | 182 | 3.0 | 6.0 | 0.00 | 0.00 | 0.00 | 60 | 1015.5 |
| 20260831091504 | 84 | 206 | 2.0 | 7.0 | 0.00 | 0.00 | 0.00 | 59 | 1015.5 |
| 20260831091004 | 84 | 224 | 2.0 | 7.0 | 0.00 | 0.00 | 0.00 | 59 | 1015.4 |
| 20260831090004 | 84 | 223 | 3.0 | 7.0 | 0.00 | 0.00 | 0.00 | 58 | 1015.3 |
| 20260831084507 | 85 | 220 | 2.0 | 7.0 | 0.00 | 0.00 | 0.00 | 57 | 1015.3 |
| 20260831084007 | 85 | 206 | 2.0 | 6.0 | 0.00 | 0.00 | 0.00 | 56 | 1015.3 |
| 20260831083507 | 85 | 230 | 3.0 | 8.0 | 0.00 | 0.00 | 0.00 | 56 | 1015.3 |
| 20260831083007 | 85 | 258 | 3.0 | 8.0 | 0.00 | 0.00 | 0.00 | 55 | 1015.3 |
| 20260831082506 | 85 | 232 | 3.0 | 9.0 | 0.00 | 0.00 | 0.00 | 54 | 1015.3 |
| 20260831082006 | 86 | 199 | 4.0 | 9.0 | 0.00 | 0.00 | 0.00 | 54 | 1015.3 |
| 20260831081506 | 86 | 224 | 4.0 | 9.0 | 0.00 | 0.00 | 0.00 | 53 | 1015.3 |
| 20260831080006 | 86 | 222 | 4.0 | 9.0 | 0.00 | 0.00 | 0.00 | 51 | 1015.2 |
| 20260831075506 | 86 | 196 | 2.0 | 7.0 | 0.00 | 0.00 | 0.00 | 51 | 1015.2 |
| 20260831074506 | 86 | 212 | 3.0 | 8.0 | 0.00 | 0.00 | 0.00 | 50 | 1015.1 |
| 20260831074007 | 86 | 205 | 3.0 | 8.0 | 0.00 | 0.00 | 0.00 | 50 | 1015.1 |
| 20260831073506 | 86 | 164 | 2.0 | 6.0 | 0.00 | 0.00 | 0.00 | 50 | 1015.1 |
| 20260831073007 | 86 | 238 | 2.0 | 5.0 | 0.00 | 0.00 | 0.00 | 49 | 1015.1 |
| 20260831072507 | 86 | 216 | 2.0 | 6.0 | 0.00 | 0.00 | 0.00 | 49 | 1014.9 |
| 20260831072007 | 86 | 183 | 2.0 | 5.0 | 0.00 | 0.00 | 0.00 | 49 | 1015.0 |
| 20260831071507 | 87 | 199 | 1.0 | 5.0 | 0.00 | 0.00 | 0.00 | 49 | 1015.0 |
| 20260831071006 | 86 | 172 | 2.0 | 6.0 | 0.00 | 0.00 | 0.00 | 49 | 1015.0 |
| 20260831070006 | 87 | 179 | 2.0 | 5.0 | 0.00 | 0.00 | 0.00 | 49 | 1015.1 |
| 20260831065507 | 87 | 169 | 2.0 | 5.0 | 0.00 | 0.00 | 0.00 | 49 | 1015.1 |
| 20260831065007 | 87 | 187 | 3.0 | 7.0 | 0.00 | 0.00 | 0.00 | 49 | 1015.2 |
| 20260831064007 | 87 | 194 | 2.0 | 5.0 | 0.00 | 0.00 | 0.00 | 50 | 1015.2 |
| 20260831063506 | 87 | 213 | 2.0 | 3.0 | 0.00 | 0.00 | 0.00 | 50 | 1015.1 |
| 20260831063006 | 87 | 202 | 0.0 | 3.0 | 0.00 | 0.00 | 0.00 | 50 | 1015.1 |
| 20260831062506 | 87 | 202 | 1.0 | 2.0 | 0.00 | 0.00 | 0.00 | 51 | 1015.0 |
| 20260831062007 | 87 | 198 | 1.0 | 3.0 | 0.00 | 0.00 | 0.00 | 50 | 1015.1 |
| 20260831061506 | 87 | 189 | 1.0 | 5.0 | 0.00 | 0.00 | 0.00 | 50 | 1015.1 |
| 20260831060007 | 88 | 201 | 3.0 | 7.0 | 0.00 | 0.00 | 0.00 | 49 | 1015.1 |
| 20260831055007 | 88 | 185 | 2.0 | 6.0 | 0.00 | 0.00 | 0.00 | 48 | 1015.3 |
| 20260831054506 | 89 | 169 | 3.0 | 6.0 | 0.00 | 0.00 | 0.00 | 48 | 1015.4 |
| 20260831054006 | 89 | 184 | 3.0 | 7.0 | 0.00 | 0.00 | 0.00 | 47 | 1015.3 |
| 20260831053506 | 89 | 180 | 3.0 | 7.0 | 0.00 | 0.00 | 0.00 | 47 | 1015.2 |
| 20260831053006 | 88 | 182 | 4.0 | 10.0 | 0.00 | 0.00 | 0.00 | 47 | 1015.2 |
| 20260831052507 | 88 | 180 | 5.0 | 9.0 | 0.00 | 0.00 | 0.00 | 48 | 1015.1 |
| 20260831052006 | 88 | 184 | 2.0 | 5.0 | 0.00 | 0.00 | 0.00 | 48 | 1015.0 |
| 20260831051507 | 88 | 170 | 1.0 | 3.0 | 0.00 | 0.00 | 0.00 | 48 | 1014.8 |
| 20260831051006 | 88 | 169 | 1.0 | 2.0 | 0.00 | 0.00 | 0.00 | 48 | 1015.0 |
| 20260831050506 | 89 | 169 | 2.0 | 5.0 | 0.00 | 0.00 | 0.00 | 47 | 1014.9 |
| 20260831050007 | 89 | 172 | 3.0 | 7.0 | 0.00 | 0.00 | 0.00 | 46 | 1014.9 |
| 20260831045506 | 89 | 177 | 3.0 | 7.0 | 0.00 | 0.00 | 0.00 | 46 | 1015.0 |
| 20260831044507 | 89 | 169 | 2.0 | 10.0 | 0.00 | 0.00 | 0.00 | 46 | 1014.9 |
| 20260831044006 | 89 | 188 | 4.0 | 7.0 | 0.00 | 0.00 | 0.00 | 46 | 1015.0 |
| 20260831043506 | 89 | 186 | 4.0 | 7.0 | 0.00 | 0.00 | 0.00 | 46 | 1015.0 |
| 20260831043007 | 89 | 178 | 3.0 | 7.0 | 0.00 | 0.00 | 0.00 | 46 | 1015.0 |
| 20260831042506 | 89 | 190 | 3.0 | 7.0 | 0.00 | 0.00 | 0.00 | 46 | 1014.9 |
| 20260831042006 | 89 | 167 | 4.0 | 8.0 | 0.00 | 0.00 | 0.00 | 46 | 1014.9 |
| 20260831041506 | 89 | 180 | 4.0 | 6.0 | 0.00 | 0.00 | 0.00 | 46 | 1014.9 |
| 20260831040506 | 89 | 175 | 2.0 | 6.0 | 0.00 | 0.00 | 0.00 | 46 | 1015.0 |
| 20260831040006 | 89 | 176 | 2.0 | 3.0 | 0.00 | 0.00 | 0.00 | 45 | 1014.9 |
| 20260831035006 | 89 | 187 | 2.0 | 5.0 | 0.00 | 0.00 | 0.00 | 46 | 1014.8 |
| 20260831034506 | 89 | 198 | 3.0 | 7.0 | 0.00 | 0.00 | 0.00 | 46 | 1014.7 |
| 20260831034006 | 89 | 170 | 2.0 | 6.0 | 0.00 | 0.00 | 0.00 | 46 | 1014.7 |
| 20260831033006 | 89 | 163 | 0.0 | 0.0 | 0.00 | 0.00 | 0.00 | 46 | 1014.7 |
| 20260831032506 | 89 | 146 | 0.0 | 0.0 | 0.00 | 0.00 | 0.00 | 46 | 1014.6 |
| 20260831032006 | 89 | 146 | 1.0 | 5.0 | 0.00 | 0.00 | 0.00 | 46 | 1014.6 |
| 20260831031506 | 89 | 146 | 2.0 | 3.0 | 0.00 | 0.00 | 0.00 | 45 | 1014.6 |
| 20260831031006 | 89 | 146 | 2.0 | 3.0 | 0.00 | 0.00 | 0.00 | 45 | 1014.6 |
| 20260831030006 | 90 | 146 | 2.0 | 3.0 | 0.00 | 0.00 | 0.00 | 44 | 1014.6 |
| 20260831025506 | 90 | 146 | 2.0 | 3.0 | 0.00 | 0.00 | 0.00 | 44 | 1014.5 |
| 20260831025006 | 90 | 146 | 2.0 | 6.0 | 0.00 | 0.00 | 0.00 | 43 | 1014.4 |
| 20260831024507 | 91 | 159 | 2.0 | 6.0 | 0.00 | 0.00 | 0.00 | 43 | 1014.4 |
| 20260831024006 | 91 | 164 | 3.0 | 7.0 | 0.00 | 0.00 | 0.00 | 42 | 1014.3 |
| 20260831023506 | 91 | 164 | 2.0 | 7.0 | 0.00 | 0.00 | 0.00 | 42 | 1014.2 |
| 20260831023006 | 91 | 157 | 2.0 | 5.0 | 0.00 | 0.00 | 0.00 | 42 | 1014.2 |
| 20260831022506 | 91 | 161 | 2.0 | 5.0 | 0.00 | 0.00 | 0.00 | 42 | 1014.1 |
| 20260831022006 | 91 | 169 | 2.0 | 5.0 | 0.00 | 0.00 | 0.00 | 42 | 1014.0 |
| 20260831021506 | 91 | 169 | 2.0 | 6.0 | 0.00 | 0.00 | 0.00 | 42 | 1013.9 |
| 20260831021006 | 91 | 166 | 2.0 | 6.0 | 0.00 | 0.00 | 0.00 | 42 | 1013.9 |
| 20260831020006 | 92 | 166 | 0.0 | 5.0 | 0.00 | 0.00 | 0.00 | 42 | 1013.8 |
| 20260831015506 | 92 | 166 | 2.0 | 5.0 | 0.00 | 0.00 | 0.00 | 41 | 1013.7 |
| 20260831015006 | 92 | 166 | 2.0 | 6.0 | 0.00 | 0.00 | 0.00 | 41 | 1013.6 |
| 20260831014506 | 93 | 167 | 3.0 | 7.0 | 0.00 | 0.00 | 0.00 | 40 | 1013.6 |
| 20260831014006 | 93 | 171 | 3.0 | 7.0 | 0.00 | 0.00 | 0.00 | 40 | 1013.6 |